Location: Baia Mare
(47.6567°N, 23.5850°E)
Time: 14:10:19
(UTC+03:00)

ISS - Pass Details

Date: 28 July 2019
Orbit: 409 x 418 km, 51.6° (Epoch: 21 July)

Event Time Altitude Azimuth Distance (km) Brightness Sun altitude
Rises 23:54:42 0° 292° (WNW) 2,354 0.8 -19.9°
Reaches altitude 10° 23:56:50 10° 287° (WNW) 1,487 -0.4 -20.1°
Enters shadow 23:59:21 39° 253° (WSW) 630 -2.9 -20.3°
